Terminal Aerodrome Forecast
Issued by NWS Rapid City, SD

Home | Current Version | Previous Version | Text Only | Print | Product List | Glossary On
Versions: 1 2 3 4 5 6 7 8 9 10 11 12 13 14 15 16 17 18 19 20 21 22
000
FTUS43 KUNR 291700
TAFRAP
TAF
KRAP 291720Z 2918/3018 35014G24KT P6SM BKN100
     FM292000 34012KT P6SM FEW040 SCT100
     FM300100 VRB04KT P6SM SKC
     FM301500 16012KT P6SM SCT150=

USA.gov is the U.S. government's official web portal to all federal, state and local government web resources and services.